Location: Stilling
(56.0622°N, 9.9882°E)
Time: 12:57:13
(UTC+00:00)

Meteor 2-6 Rocket - Pass Details

Date: 13 July 2020
Orbit: 804 x 916 km, 81.3° (Epoch: 07 August)

Event Time Altitude Azimuth Distance (km) Brightness Sun altitude
Rises 22:11:48 0° 346° (NNW) 3,372 9.6 -10.7°
Reaches altitude 10° 22:14:15 10° 349° (N) 2,424 8.2 -10.8°
Maximum altitude 22:19:41 64° 71° (ENE) 895 4.4 -11.0°
Enters shadow 22:24:16 14° 152° (SSE) 2,100 5.6 -11.2°
